Regional Weather Roundup
Issued by NWS

Home | Current Version | Previous Version | Graphics & Text | Print | Product List | Glossary On
Versions: 1 2 3 4 5 6 7 8 9 10 11 12 13 14 15 16 17 18 19 20 21 22 23 24 25 26 27 28 29 30 31 32 33 34 35 36 37 38 39 40 41 42 43 44 45 46 47 48 49 50
000
ASUS43 KDMX 290907
RWRIA

WEATHER ROUNDUP FOR IOWA
NATIONAL WEATHER SERVICE DES MOINES IA
300 AM CST SAT NOV 29 2014

NOTE: "FAIR" INDICATES FEW OR NO CLOUDS BELOW 12,000 FEET WITH NO
SIGNIFICANT WEATHER AND/OR OBSTRUCTIONS TO VISIBILITY.

* - THESE STATIONS ARE NOT NWS STATIONS...THUS NOT UNDER NWS
QUALITY CONTROL.  THEY ALSO DO NOT REPORT WEATHER SUCH
AS PRECIPITATION OR FOG.

IAZ001>003-012>014-020>022-031>034-043>046-291000-
   NORTHWEST IOWA

CITY           SKY/WX    TMP DP  RH WIND       PRES   REMARKS
CARROLL *      CLEAR     30  28  93 CALM      29.54F
CHEROKEE *       N/A     23  23 100 NE3       29.52F FOG
DENISON *      CLEAR     37  32  81 S7        29.52F WCI  32
LE MARS *      CLEAR     23  23 100 SW3       29.51S
ORANGE CITY *  CLEAR     27  25  93 E7        29.49F WCI  19
SHELDON *      CLEAR     23  21  93 SE7       29.49F WCI  15
SIOUX CITY     CLEAR     29  25  85 CALM      29.51F
SPENCER        CLEAR     19  16  88 E7        29.52F FOG     WCI  10
STORM LAKE *   CLEAR     27  25  93 S9        29.52F WCI  17
$$

IAZ055>058-069>071-079>083-090>094-291000-
   SOUTHWEST IOWA

CITY           SKY/WX    TMP DP  RH WIND       PRES   REMARKS
ATLANTIC *     CLEAR     32  32 100 S8        29.57F WCI  25
AUDUBON *      CLEAR     34  27  75 CALM      29.57S
CLARINDA *     CLEAR     36  32  87 S7        29.63S WCI  30
COUNCIL BLFS * CLEAR     45  36  70 SW13      29.56S
CRESTON *      CLEAR     37  34  87 SW9       29.61S WCI  31
HARLAN  *      CLEAR     32  32 100 CALM      29.59F
LAMONI         MOCLDY    38  33  82 S12       29.62S WCI  30
RED OAK *      CLEAR     36  32  87 SW6       29.59F WCI  31
SHENANDOAH *   CLEAR     39  34  81 S8        29.61S WCI  34
$$

IAZ047>049-059>061-072>074-084-291000-
   CENTRAL IOWA

CITY           SKY/WX    TMP DP  RH WIND       PRES   REMARKS
AMES           PTCLDY    28  25  88 SE6       29.58F WCI  22
ANKENY *       CLEAR     25  25 100 CALM      29.59F
CHARITON *     PTCLDY    39  34  81 S9        29.61F WCI  33
DES MOINES     PTCLDY    37  31  78 S8        29.59F WCI  31
GRINNELL*      MOCLDY    32  30  93 SE7       29.62F WCI  26
KNOXVILLE *    CLEAR     39  34  81 S10       29.60S WCI  32
MARSHALLTOWN   MOCLDY    30  27  88 SE12      29.59F WCI  20
PELLA *        MOCLDY    34  30  86 SE3       29.63F
PERRY *          N/A     30  30 100 SE7       29.57F WCI  23
$$

IAZ004>006-015-016-023>025-035-036-291000-
   NORTH CENTRAL IOWA

CITY           SKY/WX    TMP DP  RH WIND       PRES   REMARKS
ALGONA *       CLEAR     27  25  93 SE9       29.55F WCI  17
CLARION *      CLEAR     27  27 100 SE12      29.57S WCI  16
ESTHERVILLE    CLEAR     16  15  96 S8        29.53F FOG     WCI   5
FORT DODGE *   PTCLDY    23  19  86 E5        29.56F WCI  17
MASON CITY     CLOUDY    23  22  96 SE7       29.59F FOG     WCI  15
FOREST CITY *  CLEAR     27  27 100 SE6       29.57F FOG     WCI  20
IOWA FALLS *     N/A     25  23  93 SE7       29.59F FOG     WCI  17
$$

IAZ007>011-017>019-026>030-037>042-050>054-066-291000-
   NORTHEAST IOWA

CITY           SKY/WX    TMP DP  RH WIND       PRES   REMARKS
CEDAR RAPIDS   PTCLDY    33  31  92 SE8       29.64F WCI  26
CHARLES CITY * CLOUDY    28  27  93 SE12      29.61F FOG     WCI  18
CLINTON *      CLEAR     30  28  93 SE8       29.73F WCI  23
DECORAH *      CLOUDY    27  27 100 SE7       29.62F FOG     WCI  19
DUBUQUE        PTCLDY    30  29  96 S12       29.68F WCI  20
MONTICELLO *   CLEAR     30  30 100 SE7       29.67F WCI  23
OELWEIN *      CLEAR     28  28 100 SE12      29.63F FOG     WCI  18
WATERLOO       PTCLDY    28  27  96 SE8       29.61F FOG     WCI  20
$$

IAZ064-065-067-068-078-291000-
   EAST CENTRAL IOWA

CITY           SKY/WX    TMP DP  RH WIND       PRES   REMARKS
DAVENPORT      CLEAR     34  29  82 S8        29.70F WCI  27
IOWA CITY      PTCLDY    30  28  92 SE3       29.68F
MT. PLEASANT * PTCLDY    37  32  81 S10       29.68F WCI  30
MUSCATINE *    CLEAR     27  25  93 CALM      29.70F
QUAD CITIES    CLEAR     37  31  78 S5        29.70F WCI  33
$$

IAZ062-063-075>077-085>089-095>099-291000-
   SOUTHEAST IOWA

CITY           SKY/WX    TMP DP  RH WIND       PRES   REMARKS
BURLINGTON     PTCLDY    39  34  82 S10       29.70F WCI  32
FAIRFIELD *    CLEAR     37  32  81 S9        29.65F WCI  31
FORT MADISON * CLEAR     41  36  81 S12       29.70S
KEOKUK *       CLEAR     45  36  70 S15G21    29.68F
OSKALOOSA *      N/A     32  32 100 S10       29.63F WCI  24
CENTERVILLE *  CLEAR     43  37  81 S10       29.65F
OTTUMWA        PTCLDY    37  32  82 S9        29.63F WCI  30
WASHINGTON *   CLEAR     37  37 100 S10       29.66F WCI  30
$$

ABBREVIATIONS USED IN REMARKS
   TC - TEMPERATURES IN CELSIUS
  WCI - WIND CHILL INDEX
   HX - HEAT INDEX
  VSB - VISIBILITY
$$



USA.gov is the U.S. government's official web portal to all federal, state and local government web resources and services.